TimeCDT,TemperatureF,Dew PointF,Humidity,Sea Level PressureIn,VisibilityMPH,Wind Direction,Wind SpeedMPH,Gust SpeedMPH,PrecipitationIn,Events,Conditions,WindDirDegrees,DateUTC
12:15 AM,28.4,12.6,52,30.12,10.0,NW,3.5,-,N/A,,Clear,310,2013-03-21 05:15:00
12:35 AM,28.2,12.2,51,30.12,10.0,NW,4.6,-,N/A,,Clear,320,2013-03-21 05:35:00
12:55 AM,28.0,11.3,50,30.12,10.0,NNW,3.5,-,N/A,,Clear,340,2013-03-21 05:55:00
1:15 AM,27.5,12.0,52,30.12,10.0,NNW,5.8,-,N/A,,Clear,330,2013-03-21 06:15:00
1:35 AM,27.5,11.8,52,30.12,10.0,NNW,3.5,-,N/A,,Clear,340,2013-03-21 06:35:00
1:55 AM,27.3,11.7,52,30.12,10.0,NW,4.6,-,N/A,,Clear,310,2013-03-21 06:55:00
2:15 AM,27.3,11.5,51,30.11,10.0,NW,5.8,-,N/A,,Clear,310,2013-03-21 07:15:00
2:35 AM,26.8,12.2,54,30.11,10.0,WNW,4.6,-,N/A,,Clear,300,2013-03-21 07:35:00
2:55 AM,26.6,12.0,54,30.11,10.0,Calm,Calm,-,N/A,,Clear,0,2013-03-21 07:55:00
3:15 AM,25.5,13.3,60,30.10,10.0,WNW,3.5,-,N/A,,Clear,300,2013-03-21 08:15:00
3:35 AM,23.9,14.7,68,30.10,10.0,West,4.6,-,N/A,,Clear,280,2013-03-21 08:35:00
3:55 AM,23.7,13.1,64,30.10,10.0,West,5.8,-,N/A,,Clear,270,2013-03-21 08:55:00
4:15 AM,23.7,13.1,64,30.09,10.0,West,5.8,-,N/A,,Clear,280,2013-03-21 09:15:00
4:55 AM,23.7,13.3,64,30.09,10.0,NW,3.5,-,N/A,,Clear,310,2013-03-21 09:55:00
5:15 AM,24.6,12.9,61,30.09,10.0,Calm,Calm,-,N/A,,Clear,0,2013-03-21 10:15:00
5:55 AM,22.1,14.0,71,30.10,10.0,WNW,3.5,-,N/A,,Clear,290,2013-03-21 10:55:00
6:15 AM,22.5,15.1,73,30.10,10.0,West,5.8,-,N/A,,Clear,280,2013-03-21 11:15:00
6:35 AM,21.2,14.4,75,30.11,10.0,West,6.9,-,N/A,,Clear,280,2013-03-21 11:35:00
6:50 AM,23.0,15.8,74,30.11,10.0,NW,9.2,-,N/A,,Partly Cloudy,320,2013-03-21 11:50:00
6:55 AM,22.8,15.6,74,30.11,10.0,Calm,Calm,-,N/A,,Clear,0,2013-03-21 11:55:00
7:50 AM,24.8,12.2,59,30.12,10.0,NW,5.8,-,N/A,,Partly Cloudy,310,2013-03-21 12:50:00
8:50 AM,26.6,14.0,59,30.13,10.0,North,5.8,-,N/A,,Partly Cloudy,10,2013-03-21 13:50:00
9:55 AM,28.4,12.2,51,30.14,10.0,Variable,4.6,-,N/A,,Mostly Cloudy,0,2013-03-21 14:55:00
10:50 AM,30.2,10.4,44,30.13,10.0,Variable,4.6,-,N/A,,Scattered Clouds,0,2013-03-21 15:50:00
11:50 AM,32.0,12.2,44,30.11,10.0,Variable,4.6,-,N/A,,Partly Cloudy,0,2013-03-21 16:50:00
12:45 PM,32.0,12.2,44,30.10,10.0,Variable,4.6,-,N/A,,Scattered Clouds,0,2013-03-21 17:45:00
1:45 PM,35.6,8.6,33,30.07,10.0,Variable,4.6,-,N/A,,Mostly Cloudy,0,2013-03-21 18:45:00
2:45 PM,35.6,8.6,33,30.03,10.0,Variable,3.5,-,N/A,,Mostly Cloudy,0,2013-03-21 19:45:00
3:45 PM,35.6,10.4,35,30.01,10.0,Variable,3.5,-,N/A,,Overcast,0,2013-03-21 20:45:00
4:45 PM,37.4,12.2,36,30.01,10.0,East,6.9,-,N/A,,Mostly Cloudy,90,2013-03-21 21:45:00
7:50 PM,32.0,17.6,55,30.02,10.0,East,4.6,-,N/A,,Scattered Clouds,90,2013-03-22 00:50:00
10:15 PM,32.0,20.3,62,30.03,10.0,East,3.5,-,N/A,,Clear,90,2013-03-22 03:15:00
10:35 PM,32.0,19.9,61,30.03,10.0,East,3.5,-,N/A,,Clear,90,2013-03-22 03:35:00
10:55 PM,32.0,20.3,62,30.03,10.0,East,3.5,-,N/A,,Clear,80,2013-03-22 03:55:00
11:15 PM,32.0,20.3,62,30.03,10.0,East,4.6,-,N/A,,Clear,80,2013-03-22 04:15:00
11:35 PM,32.0,20.3,62,30.03,10.0,East,4.6,-,N/A,,Clear,90,2013-03-22 04:35:00
11:55 PM,32.4,20.3,61,30.03,10.0,East,5.8,-,N/A,,Clear,100,2013-03-22 04:55:00